Location: Faicchio
(41.2833°N, 14.4833°E)
Time: 06:03:34
(UTC+00:00)

NPP - Pass Details

Date: 15 June 2025
Orbit: 826 x 828 km, 98.8° (Epoch: 16 July)

Event Time Altitude Azimuth Distance (km) Brightness Sun altitude
Rises 01:27:44 0° 7° (N) 3,377 7.9 -17.2°
Reaches altitude 10° 01:30:11 10° 1° (N) 2,440 6.9 -16.9°
Maximum altitude 01:35:16 44° 291° (WNW) 1,132 4.2 -16.3°
Enters shadow 01:38:06 24° 233° (SW) 1,647 4.6 -16.0°
